Flag for Brazil Weather past 2 weeks in Santarém, Pará, Brazil

Now
79 °F

Clear.


Feels Like: 82 °F
Forecast: 74 / 86 °F
Wind: 5 mph from Southeast

Location: Santarem-Aeroporto

Current Time: Jul 4, 2015 at 9:27:28 PM

Latest Report: Jul 4, 2015 at 9:00 PM


Visibility: 10 mi

Pressure: 29.86 "Hg

Humidity: 89%

Dew point: 75 °F

Location of SantarémLocation

Historic Weather in Santarém — Graph

°F

Santarém temperature yesterday

Maximum temperature yesterday: 82 °F (at 3:00 PM)
Minimum temperature yesterday: 36 °F (at 5:00 AM)
Average temperature yesterday: 75 °F

Past Weeks' High & Low Weather Summary

 TemperatureHumidityPressure
High88 °F (Jun 20, 2:00 PM)100% (Jun 19, 10:00 PM)30.04 "Hg (Jun 19, 10:00 PM)
Low36 °F (Jul 3, 5:00 AM)66% (Jun 24, 1:00 PM)29.80 "Hg (Jul 2, 4:00 PM)
Average79 °F88%29.94 "Hg
* Reported Jun 19 8:00 PM — Jul 4 8:00 PM, Santarém, Weather by CustomWeather, © 2015

Note: Actual official high and low records may vary slightly from our data, if they occured in-between our weather recording intervals... More about our weather records

Advertising

Santarém weather history for previous 24 hours

 ConditionsComfort  
Time TempWeatherWind HumidityBarometerVisibility
8:00 PM
Sat, Jul 4
81 °FPassing clouds.5 mph84%29.83 "HgN/A
7:00 PM81 °FBroken clouds.5 mph84%29.80 "HgN/A
6:00 PM84 °FPassing clouds.12 mph74%29.80 "HgN/A
5:00 PM86 °FPassing clouds.12 mph70%29.80 "HgN/A
4:00 PM86 °FPassing clouds.14 mph70%29.80 "HgN/A
3:00 PM86 °FScattered clouds.15 mph70%29.83 "HgN/A
2:00 PM86 °FScattered clouds.15 mph70%29.89 "HgN/A
1:00 PM84 °FScattered clouds.14 mph74%29.92 "HgN/A
12:00 PM84 °FScattered clouds.14 mph79%29.92 "HgN/A
11:00 AM84 °FScattered clouds.12 mph74%29.95 "HgN/A
10:00 AM82 °FBroken clouds.15 mph79%29.95 "HgN/A
9:00 AM81 °FPartly sunny.12 mph84%29.95 "HgN/A
8:00 AM79 °FBroken clouds.12 mph89%29.92 "HgN/A
7:00 AM77 °FPassing clouds.6 mph94%29.92 "HgN/A
6:00 AM77 °FPassing clouds.3 mph94%29.89 "HgN/A
5:00 AM77 °FPassing clouds.8 mph94%29.86 "HgN/A
4:00 AM79 °FPassing clouds.7 mph89%29.86 "HgN/A
3:00 AM79 °FPassing clouds.14 mph89%29.86 "HgN/A
2:00 AM79 °FClear.8 mph89%29.86 "Hg10 mi
1:00 AM79 °FPassing clouds.8 mph89%29.89 "HgN/A
12:00 AM75 °FPassing clouds.6 mph100%29.89 "HgN/A
11:00 PM
Fri, Jul 3
75 °FThundershowers. Passing clouds.No wind100%N/AN/A
10:00 PM75 °FThundershowers. Passing clouds.3 mph100%N/AN/A
9:00 PM77 °FThundershowers. Passing clouds.5 mph94%29.89 "HgN/A
Weather by CustomWeather, © 2015

See weather overviewHow to use our weather pages